Location: Praha
(50.0830°N, 14.4670°E)
Time: 05:42:38
(UTC+02:00)

ISS - Pass Details

Date: 31 March 2020
Orbit: 417 x 423 km, 51.6° (Epoch: 29 March)

Event Time Altitude Azimuth Distance (km) Brightness Sun altitude
Rises 20:08:30 0° 284° (WNW) 2,361 2.9 -6.4°
Reaches altitude 10° 20:10:36 10° 285° (WNW) 1,497 0.9 -6.7°
Maximum altitude 20:13:57 80° 12° (NNE) 428 -3.7 -7.2°
Enters shadow 20:17:16 10° 101° (E) 1,472 -1.7 -7.7°
